Location: Buffign�court
(47.8126°N, 6.0176°E)
Time: 02:52:43
(UTC+00:00)

Cosmos 1626 - Pass Details

Date: 16 June 2021
Orbit: 488 x 493 km, 82.5° (Epoch: 04 August)

Event Time Altitude Azimuth Distance (km) Brightness Sun altitude
Exits shadow 21:27:23 16° 189° (S) 1,371 3.9 -13.1°
Maximum altitude 21:30:19 89° 271° (W) 499 2.0 -13.3°
Drops below altitude 10° 21:34:02 10° 9° (N) 1,698 5.6 -13.7°
Sets 21:36:10 0° 10° (N) 2,587 6.6 -13.8°
